This demonstration page uses our WeatherBlox Daily Observations layout. Learn more.

Left ArrowRight Arrow

33.98154, -81.23621

Hourly Observations for September 29, 2022

Temp ( °F °C ) Dew Point ( °F °C ) Humidity (%) Winds ( mph kmh ) Pressure ( in mb ) Visibility ( mi km ) Precip ( " mm )
12:56 am 00:56 Cloudy 62 16.7 40 4.4 44 44 NNE 10 17 30.16 1021 10 16 0.00 0.00
1:56 am 01:56 Cloudy 61 16.1 41 5 48 48 NNE 8 13 30.15 1021 10 16 0.00 0.00
2:56 am 02:56 Cloudy 59 15 42 5.6 53 53 NNE 7 11 30.14 1021 10 16 0.00 0.00
3:56 am 03:56 Cloudy 59 15 43 6.1 55 55 NNE 13 20 30.12 1020 10 16 0.00 0.00
4:56 am 04:56 Mostly Cloudy 59 15 43 6.1 55 55 NNE 9 15 30.11 1020 10 16 0.00 0.00
5:56 am 05:56 Cloudy 60 15.6 45 7.2 57 57 NNE 13 20 30.12 1020 10 16 0.00 0.00
6:56 am 06:56 Cloudy 60 15.6 45 7.2 57 57 NNE 17 28 30.12 1020 10 16 0.01 0.13
7:56 am 07:56 Mostly Cloudy 60 15.6 45 7.2 57 57 NNE 15 24 30.11 1020 10 16 0.00 0.00
8:56 am 08:56 Mostly Cloudy 60 15.6 45 7.2 57 57 NNE 12 19 30.13 1020 10 16 0.00 0.00
9:56 am 09:56 Mostly Cloudy 63 17.2 47 8.3 56 56 NE 15 24 30.12 1020 10 16 0.00 0.00
10:56 am 10:56 Cloudy 64 17.8 47 8.3 54 54 NE 15 24 30.14 1021 10 16 0.00 0.00
11:56 am 11:56 Cloudy 65 18.3 47 8.3 52 52 NNE 20 31 30.13 1020 10 16 0.00 0.00
12:56 pm 12:56 Cloudy 66 18.9 48 8.9 52 52 NNE 16 26 30.11 1020 10 16 0.00 0.00
1:56 pm 13:56 Cloudy 66 18.9 49 9.4 54 54 NNE 13 20 30.10 1019 10 16 0.00 0.00
2:56 pm 14:56 Cloudy 67 19.4 49 9.4 52 52 NNE 16 26 30.07 1018 10 16 0.00 0.00
3:56 pm 15:56 Cloudy 68 20 48 8.9 49 49 NE 17 28 30.06 1018 10 16 0.00 0.00
4:56 pm 16:56 Cloudy 68 20 48 8.9 49 49 NE 16 26 30.06 1018 10 16 0.00 0.00
5:56 pm 17:56 Cloudy 67 19.4 48 8.9 51 51 NNE 16 26 30.06 1018 10 16 0.01 0.13
6:56 pm 18:56 Cloudy 67 19.4 48 8.9 51 51 NE 20 31 30.05 1018 10 16 0.00 0.00
7:56 pm 19:56 Cloudy 66 18.9 48 8.9 52 52 NE 12 19 30.04 1017 10 16 0.00 0.00
8:56 pm 20:56 Cloudy 65 18.3 49 9.4 56 56 NNE 18 30 30.04 1017 10 16 0.00 0.00
9:56 pm 21:56 Cloudy 65 18.3 49 9.4 56 56 NNE 17 28 30.04 1017 10 16 0.00 0.00
10:56 pm 22:56 Cloudy 65 18.3 49 9.4 56 56 NNE 14 22 30.02 1017 10 16 0.00 0.00
11:56 pm 23:56 Cloudy 64 17.8 49 9.4 58 58 NNE 13 20 30.00 1016 10 16 0.00 0.00

Powered by AerisWeather